Flag for Switzerland Weather past 2 weeks in Renens, Vaud, Switzerland

Now
32 °F

Chilly.


Feels Like: 32 °F
Forecast: 30 / 50 °F
Wind: 1 mph from East

Location: Aigle

Current Time: Dec 22, 2014 at 7:03:24 PM

Latest Report: Dec 22, 2014 at 6:00 PM


Visibility: N/A

Pressure: 30.49 "Hg

Humidity: 95%

Dew point: 31 °F

Location of RenensLocation

Historic Weather in Renens — Graph

°F

Renens temperature yesterday

Maximum temperature yesterday: 46 °F (at 2:00 PM)
Minimum temperature yesterday: 33 °F (at 8:00 AM)
Average temperature yesterday: 39 °F

Past Weeks' High & Low Weather Summary

 TemperatureHumidityPressure
High56 °F (Dec 13, 1:00 PM)99% (Dec 19, 12:00 AM)30.63 "Hg (Dec 19, 12:00 AM)
Low29 °F (Dec 10, 5:00 AM)39% (Dec 13, 1:00 PM)29.90 "Hg (Dec 13, 2:00 AM)
Average42 °F77%30.22 "Hg
* Reported Dec 7 5:00 PM — Dec 22 5:00 PM, Renens, Weather by CustomWeather, © 2014

Note: Actual official high and low records may vary slightly from our data, if they occured in-between our weather recording intervals... More about our weather records

Advertising

Renens weather history for previous 24 hours

 ConditionsComfort  
Time TempWeatherWind HumidityBarometerVisibility
5:00 PM
Dec 22
37 °FChilly.5 mph87%30.47 "HgN/A
4:00 PM44 °FScattered clouds.3 mph63%30.45 "Hg17 mi
3:00 PM47 °FCool.2 mph59%30.44 "HgN/A
2:00 PM46 °FCool.1 mph55%30.46 "HgN/A
1:00 PM45 °FScattered clouds.6 mph60%30.49 "Hg16 mi
12:00 PM43 °FQuite cool.3 mph60%30.53 "HgN/A
11:00 AM41 °FQuite cool.1 mph62%30.54 "HgN/A
10:00 AM38 °FChilly.6 mph71%30.53 "HgN/A
9:00 AM36 °FChilly.6 mph73%30.54 "HgN/A
8:00 AM34 °FChilly.5 mph80%30.55 "HgN/A
7:00 AM32 °FClear.3 mph88%30.55 "Hg11 mi
6:00 AM37 °FChilly.5 mph71%30.53 "HgN/A
5:00 AM37 °FChilly.10 mph72%30.53 "HgN/A
4:00 AM35 °FClear.7 mph82%30.57 "Hg16 mi
3:00 AM38 °FChilly.1 mph71%30.56 "HgN/A
2:00 AM39 °FChilly.9 mph70%30.55 "HgN/A
1:00 AM38 °FChilly.8 mph73%30.58 "HgN/A
12:00 AM35 °FChilly.5 mph83%30.60 "HgN/A
11:00 PM
Dec 21
37 °FChilly.5 mph76%30.60 "HgN/A
9:00 PM33 °FChilly.3 mph93%30.62 "HgN/A
8:00 PM35 °FChilly.5 mph88%30.63 "HgN/A
7:00 PM34 °FChilly.1 mph92%30.62 "HgN/A
Weather by CustomWeather, © 2014

See weather overviewHow to use our weather pages